[[{"header":{"parameterUnit":"m.s-1","parameterCategory":2,"la1":30.2991,"la2":30.254,"lo1":-89.0895,"lo2":-89.0444,"dy":0.0017,"dx":0.0017,"nx":28,"ny":28,"refTime":"2025-03-17T03:00:00:Z","depth":"0","parameterNumber":2,"parameterNumberName":"U-component_of_CURRENTS"},"data":[0,0,0,0,0,0,0,0,0,0,0,0,0,0,0,0,0,0,0,0,0,0,0,0,0,0,0,0,0,0,0,0,0,0,0,0,0,0,0,0,0,0,0,0,0,0,0,0,0,0,0,0,0,0,0,0,0,0,0.2199,0.22,0,0.2193,0.2193,0.2192,0.2134,0.2133,0.2131,0.213,0.2075,0.2075,0.2074,0,0,0,0,0,0,0,0,0,0,0,0,0,0.2189,0.2189,0.2199,0.22,0.22,0.2193,0.2193,0.2192,0.2134,0.2133,0.2131,0.213,0.2075,0.2075,0.2074,0,0,0,0,0,0,0,0,0,0,0,0,0,0.2187,0.2189,0.2199,0.2172,0.217,0.2193,0.2193,0.2192,0.2134,0.2132,0.2131,0.2129,0.2075,0.2075,0.2074,0.2107,0,0,0.2073,0.2073,0,0,0,0,0,0,0,0,0.2187,0.2187,0.2176,0.2174,0.2172,0.2165,0.2169,0.2162,0.2135,0.2145,0.213,0.2128,0.2104,0.2101,0.21,0.2104,0.2102,0.2073,0.2072,0.2072,0.2072,0,0,0,0,0,0,0,0.2187,0.2187,0.2194,0.2176,0.2174,0.217,0.2167,0.2167,0.2131,0.2144,0.214,0.2145,0.2102,0.2101,0.2098,0.2101,0.2073,0.2072,0.2072,0.2072,0.2114,0.2116,0,0,0,0,0,0,0.2194,0.2187,0.2194,0.2194,0.2178,0.2172,0.2168,0.2166,0.2132,0.2126,0.2146,0.2142,0.2103,0.2099,0.2096,0.2136,0.2072,0.2072,0.2071,0.2113,0.2114,0.2116,0,0,0,0,0,0,0.2194,0.2195,0.2194,0.2193,0.2193,0.2174,0.2172,0.2167,0.2166,0.2135,0.2127,0.215,0.2101,0.2097,0.2099,0.2133,0.2071,0.2071,0.2111,0.2113,0.2115,0.2213,0,0,0,0,0,0,0.2194,0.2195,0.2198,0.2193,0.2193,0.2213,0.2174,0.2169,0.2173,0.2167,0.2136,0.2129,0.2099,0.21,0.2098,0.2131,0.207,0.2109,0.2112,0.2115,0.2208,0.2219,0.2227,0,0,0,0,0,0.2193,0.2209,0.2198,0.22,0.2198,0.2215,0.2215,0.2193,0.2175,0.2183,0.216,0.213,0.2116,0.2101,0.2098,0.2132,0.2108,0.2111,0.2114,0.2204,0.2216,0.2227,0,0,0,0,0,0,0.2214,0.2205,0.2193,0.2206,0.2212,0.2206,0.2217,0.2205,0.2195,0.2185,0.215,0.2143,0.2157,0.2133,0.2118,0.2152,0.2107,0.211,0.2176,0.2188,0.2197,0.2206,0.207,0,0,0,0,0,0.2221,0.2225,0.2222,0.2236,0.224,0.2231,0.2236,0.2222,0.2215,0.2208,0.219,0.2173,0.2173,0.2169,0.216,0.2183,0.2184,0.2202,0.2212,0.222,0.2226,0.2275,0.229,0.2127,0.2127,0.2127,0,0,0.2236,0.2232,0.2235,0.224,0.2242,0.2261,0.2229,0.2242,0.2259,0.2206,0.2223,0.2207,0.2186,0.2206,0.2211,0.2189,0.2267,0.2225,0.2232,0.2233,0.228,0.2296,0.2311,0.2129,0.2129,0.2128,0,0,0.2266,0.2263,0.2271,0.2284,0.229,0.229,0.2298,0.2297,0.2293,0.2311,0.228,0.2288,0.2282,0.2279,0.2276,0.2337,0.2317,0.2331,0.2389,0.2437,0.2452,0.2464,0.2489,0.2503,0.2336,0.2337,0.2337,0,0.2281,0.2286,0.2282,0.2301,0.2317,0.2307,0.233,0.234,0.234,0.2348,0.2325,0.234,0.2321,0.2357,0.2373,0.2361,0.2375,0.2348,0.2452,0.2464,0.2475,0.2497,0.2512,0.2342,0.2341,0.2341,0.234,0,0.2312,0.2324,0.2339,0.2353,0.2377,0.2397,0.2413,0.2431,0.2428,0.2431,0.2462,0.2447,0.2453,0.2457,0.2432,0.2502,0.2481,0.2461,0.2426,0.2498,0.2516,0.2529,0.2349,0.2347,0.2346,0.2344,0,0,0.2323,0.2348,0.2353,0.2366,0.2402,0.2421,0.247,0.25,0.253,0.2537,0.2581,0.2587,0.2575,0.2572,0.2553,0.2593,0.2682,0.2564,0.2564,0.2594,0.2782,0.2741,0.2751,0.2686,0.2689,0.2691,0.2764,0,0.2341,0.2366,0.2387,0.2435,0.2452,0.2482,0.2532,0.2565,0.2587,0.2631,0.2636,0.2664,0.2622,0.2631,0.2669,0.2683,0.272,0.2663,0.2701,0.2702,0.2663,0.2766,0.2675,0.273,0.2776,0.2778,0.278,0,0.2356,0.237,0.2402,0.246,0.2474,0.2514,0.2585,0.2628,0.2693,0.2712,0.2748,0.2748,0.2805,0.2759,0.2832,0.28,0.2798,0.2803,0.2806,0.2742,0.2686,0.2664,0.2751,0.278,0.2799,0.2798,0.2796,0,0.2342,0.2385,0.2404,0.2425,0.2492,0.2527,0.2572,0.2645,0.2699,0.2766,0.281,0.2858,0.2899,0.2921,0.2924,0.289,0.3004,0.2957,0.2915,0.2911,0.2826,0.281,0.2948,0.3011,0.3011,0.3011,0.301,0,0.2346,0.2366,0.2395,0.2416,0.2458,0.2521,0.2596,0.2641,0.2745,0.2807,0.2846,0.2905,0.2947,0.3003,0.2982,0.3003,0.3053,0.2951,0.2944,0.2856,0.2842,0.2853,0.2855,0.3013,0.3013,0.3012,0.3012,0,0.2322,0.2343,0.2374,0.2433,0.2451,0.2487,0.2608,0.2657,0.276,0.285,0.2878,0.2985,0.3058,0.3085,0.3138,0.3084,0.3035,0.3077,0.2961,0.2939,0.2901,0.291,0.2811,0.2738,0.3051,0.3051,0.3051,0,0.2298,0.2306,0.2364,0.2376,0.2401,0.2467,0.2507,0.2636,0.27,0.2878,0.2912,0.304,0.309,0.3175,0.3133,0.3121,0.3046,0.3001,0.2916,0.2921,0.2926,0.2754,0.2688,0.2842,0.284,0.2838,0.2837,0,0.225,0.2276,0.2297,0.2322,0.2358,0.2413,0.2489,0.2557,0.2703,0.2799,0.2926,0.2999,0.3097,0.307,0.3069,0.3032,0.2903,0.2966,0.3016,0.2823,0.26,0.2519,0.2762,0.2823,0.2824,0.2825,0.2826,0.2827,0.2195,0.2195,0.222,0.2245,0.2284,0.2328,0.2363,0.2456,0.2565,0.2671,0.2825,0.287,0.2976,0.2979,0.293,0.2878,0.2812,0.2808,0.2833,0.2668,0.2555,0.276,0.2782,0.2783,0.2784,0.2785,0.2786,0,0.2094,0.211,0.2132,0.2163,0.2172,0.2232,0.2313,0.233,0.2396,0.2503,0.2599,0.2695,0.2732,0.279,0.2835,0.2775,0.2576,0.2746,0.2529,0.2482,0.2734,0.2688,0.2637,0.2637,0.2637,0.2637,0.2637,0.2637,0.2032,0.2014,0.2035,0.2025,0.2053,0.2048,0.2077,0.2103,0.2164,0.2206,0.2241,0.2331,0.2633,0.2843,0.2875,0.2795,0.2646,0.2496,0.2515,0.279,0.2798,0.2805,0.2767,0.2733,0.2733,0.2117,0.2113,0.2111]},{"header":{"parameterUnit":"m.s-1","parameterCategory":2,"la1":30.2991,"la2":30.254,"lo1":-89.0895,"lo2":-89.0444,"dy":0.0017,"dx":0.0017,"nx":28,"ny":28,"refTime":"2025-03-17T03:00:00:Z","depth":"0","parameterNumber":3,"parameterNumberName":"V-component_of_CURRENTS"},"data":[0,0,0,0,0,0,0,0,0,0,0,0,0,0,0,0,0,0,0,0,0,0,0,0,0,0,0,0,0,0,0,0,0,0,0,0,0,0,0,0,0,0,0,0,0,0,0,0,0,0,0,0,0,0,0,0,0,0,-0.0094,-0.0094,0,-0.0074,-0.0074,-0.0074,-0.0079,-0.0079,-0.0079,-0.008,-0.0053,-0.0052,-0.0051,0,0,0,0,0,0,0,0,0,0,0,0,0,-0.0132,-0.0131,-0.0094,-0.0094,-0.0094,-0.0074,-0.0074,-0.0074,-0.0079,-0.0079,-0.008,-0.008,-0.0054,-0.0053,-0.0051,0,0,0,0,0,0,0,0,0,0,0,0,0,-0.0115,-0.0131,-0.0094,-0.0094,-0.0093,-0.0075,-0.0074,-0.0074,-0.0079,-0.0079,-0.008,-0.008,-0.0054,-0.0053,-0.0051,-0.0031,0,0,-0.0046,-0.0046,0,0,0,0,0,0,0,0,-0.0116,-0.0113,-0.0094,-0.0094,-0.0093,-0.0079,-0.0078,-0.0059,-0.0078,-0.0085,-0.008,-0.008,-0.0061,-0.0059,-0.0055,-0.003,-0.0029,-0.0046,-0.0045,-0.0045,-0.0044,0,0,0,0,0,0,0,-0.0117,-0.0114,-0.0087,-0.0094,-0.0093,-0.0093,-0.0091,-0.0074,-0.007,-0.0084,-0.0084,-0.0081,-0.0061,-0.0056,-0.0054,-0.0029,-0.0046,-0.0045,-0.0044,-0.0043,0.0003,0.0004,0,0,0,0,0,0,-0.0118,-0.0115,-0.0088,-0.0086,-0.0105,-0.0091,-0.0089,-0.0084,-0.0071,-0.0069,-0.0081,-0.0082,-0.0058,-0.0056,-0.0053,-0.0035,-0.0045,-0.0043,-0.0042,0.0003,0.0003,0.0004,0,0,0,0,0,0,-0.0119,-0.0116,-0.0088,-0.01,-0.0097,-0.009,-0.0084,-0.0083,-0.0079,-0.0068,-0.0067,-0.0078,-0.0059,-0.0055,-0.0036,-0.0034,-0.0043,-0.0041,0.0003,0.0003,0.0003,0.0005,0,0,0,0,0,0,-0.012,-0.0116,-0.0108,-0.01,-0.0096,-0.0072,-0.0083,-0.0082,-0.0076,-0.0077,-0.0065,-0.0063,-0.0059,-0.0038,-0.0034,-0.0032,-0.004,0.0002,0.0003,0.0003,0.0004,0.0005,0.0006,0,0,0,0,0,-0.0121,-0.0105,-0.0108,-0.0104,-0.0087,-0.0071,-0.0068,-0.0066,-0.0076,-0.0067,-0.0062,-0.0064,-0.0032,-0.0036,-0.0032,-0.0029,0.0002,0.0003,0.0003,0.0004,0.0005,0.0006,0,0,0,0,0,0,-0.0123,-0.0104,-0.0107,-0.0088,-0.008,-0.0072,-0.0059,-0.0065,-0.0054,-0.0055,-0.0053,-0.005,-0.0035,-0.0029,-0.0034,-0.0014,-0.0018,-0.0016,-0.0019,-0.0017,-0.0017,-0.0011,-0.0039,0,0,0,0,0,-0.0118,-0.0099,-0.009,-0.0076,-0.0068,-0.0066,-0.0059,-0.006,-0.0051,-0.0048,-0.0041,-0.0035,-0.0027,-0.002,-0.0009,0.0008,-0.0003,0.001,0.0011,0.0012,0.002,0.0,-0.0,0.0006,0.0006,0.0006,0,0,-0.0117,-0.0103,-0.0094,-0.0074,-0.0066,-0.0047,-0.0063,-0.0048,-0.0041,-0.0045,-0.0028,-0.0028,-0.0022,-0.0007,-0.0,-0.0002,0.0003,0.0013,0.0013,0.0021,0.0001,0.0,-0.0,0.0006,0.0006,0.0006,0,0,-0.0094,-0.0089,-0.0061,-0.005,-0.0033,-0.0032,-0.0029,-0.002,-0.0022,-0.0006,-0.0014,-0.0012,0.0009,0.0007,0.0009,0.0023,0.0008,0.0024,0.0035,0.0015,0.0015,0.0014,-0.0009,-0.0012,0.0024,0.0024,0.0024,0,-0.0091,-0.0056,-0.0053,-0.0024,-0.0012,-0.0025,0.0,-0.0002,0.0008,0.0012,0.0003,0.0016,0.0015,0.0023,0.0022,0.0025,0.001,0.0028,0.0015,0.0015,0.0014,-0.001,-0.0013,0.0024,0.0024,0.0024,0.0024,0,-0.0044,-0.0019,-0.0002,0.003,0.0038,0.0059,0.0054,0.0056,0.0048,0.0047,0.0053,0.0044,0.0053,0.0044,0.0038,0.0031,0.0021,0.0017,0.001,0.0013,-0.0012,-0.0015,0.0025,0.0025,0.0025,0.0024,0,0,-0.0023,0.0025,0.0031,0.0054,0.0069,0.0083,0.0087,0.0097,0.0108,0.0097,0.0109,0.0097,0.0085,0.0086,0.0068,0.0045,0.0015,0.0028,0.0027,0.0001,-0.0033,-0.005,-0.0056,0.0005,0.0004,0.0004,-0.0051,0,0.0017,0.0083,0.0088,0.0134,0.0165,0.0149,0.0158,0.0157,0.0152,0.0159,0.0128,0.0137,0.0102,0.0102,0.0073,0.0039,0.0008,0.003,-0.0027,-0.0028,-0.0048,-0.0059,-0.0031,-0.0079,-0.0054,-0.0055,-0.0055,0,0.0063,0.0106,0.0162,0.0196,0.0206,0.0222,0.0234,0.0243,0.0236,0.0227,0.0214,0.0196,0.0164,0.0132,0.006,0.0076,0.0022,-0.0015,-0.0018,-0.0034,-0.0052,-0.0075,-0.0086,-0.0208,-0.0061,-0.006,-0.006,0,0.0089,0.015,0.0198,0.0213,0.0249,0.026,0.0271,0.0271,0.0288,0.0272,0.0284,0.0237,0.0229,0.0151,0.0068,0.0064,-0.0015,-0.0027,-0.0097,-0.0099,-0.0085,-0.0085,-0.0222,-0.0085,-0.0085,-0.0085,-0.0085,0,0.0129,0.0166,0.0218,0.0247,0.0303,0.0302,0.0347,0.0342,0.035,0.0389,0.0327,0.0348,0.0234,0.018,0.0085,-0.0016,-0.0005,-0.0097,-0.0114,-0.0085,-0.0084,-0.0197,-0.0279,-0.0087,-0.0086,-0.0086,-0.0086,0,0.0146,0.018,0.0243,0.0297,0.032,0.0357,0.0407,0.0444,0.0429,0.0474,0.0471,0.0432,0.0359,0.0232,0.0114,0.0022,-0.0158,-0.0126,-0.0089,-0.0101,-0.0278,-0.036,-0.0469,-0.0573,-0.0209,-0.021,-0.021,0,0.0162,0.0201,0.0287,0.0335,0.0364,0.0424,0.0475,0.0484,0.0529,0.0541,0.0577,0.0515,0.051,0.0313,0.012,-0.0064,-0.0186,-0.0164,-0.0168,-0.029,-0.0395,-0.0409,-0.0491,-0.0153,-0.0153,-0.0153,-0.0153,0,0.02,0.0229,0.0287,0.039,0.0458,0.0537,0.0608,0.0658,0.0679,0.0727,0.0785,0.0781,0.0579,0.0418,0.0135,0.0006,-0.0256,-0.0172,-0.0304,-0.0372,-0.0388,-0.0495,-0.0123,-0.0154,-0.0154,-0.0154,-0.0154,-0.0154,0.0228,0.0275,0.0357,0.0453,0.0539,0.0646,0.073,0.0819,0.0921,0.1012,0.0971,0.1004,0.0713,0.0346,0.0114,-0.0264,-0.0279,-0.035,-0.0442,-0.0445,-0.0543,-0.018,-0.0227,-0.0228,-0.0228,-0.0228,-0.0228,0,0.0273,0.033,0.0419,0.0537,0.0644,0.0679,0.0823,0.0932,0.1096,0.1167,0.1231,0.1113,0.076,0.0364,-0.0155,-0.0452,-0.0563,-0.0623,-0.0643,-0.0722,-0.0395,-0.039,-0.0467,-0.0467,-0.0467,-0.0467,-0.0467,-0.0466,0.0297,0.0388,0.0437,0.0612,0.0701,0.0865,0.0964,0.114,0.1245,0.1393,0.1414,0.1376,0.1138,0.0211,-0.0455,-0.0667,-0.0927,-0.0944,-0.1114,-0.0889,-0.087,-0.0851,-0.0865,-0.1041,-0.1042,-0.1369,-0.1373,-0.1376]}],[{"header":{"parameterUnit":"m.s-1","parameterCategory":2,"la1":30.2991,"la2":30.254,"lo1":-89.0895,"lo2":-89.0444,"dy":0.0017,"dx":0.0017,"nx":28,"ny":28,"refTime":"2025-03-17T03:00:00:Z","depth":"2","parameterNumber":2,"parameterNumberName":"U-component_of_CURRENTS"},"data":[0,0,0,0,0,0,0,0,0,0,0,0,0,0,0,0,0,0,0,0,0,0,0,0,0,0,0,0,0,0,0,0,0,0,0,0,0,0,0,0,0,0,0,0,0,0,0,0,0,0,0,0,0,0,0,0,0,0,0.2124,0.2124,0,0.2119,0.2119,0.2119,0.2064,0.2063,0.2061,0.206,0.201,0.2009,0.2009,0,0,0,0,0,0,0,0,0,0,0,0,0,0.2095,0.2095,0.2124,0.2124,0.2125,0.2119,0.2119,0.2119,0.2064,0.2063,0.2061,0.206,0.201,0.2009,0.2009,0,0,0,0,0,0,0,0,0,0,0,0,0,0.2098,0.2095,0.2124,0.2099,0.2097,0.2119,0.2119,0.2119,0.2064,0.2063,0.2061,0.2059,0.201,0.2009,0.2009,0.2039,0,0,0.2007,0.2007,0,0,0,0,0,0,0,0,0.2098,0.2098,0.2102,0.2101,0.2098,0.2093,0.209,0.2091,0.2065,0.2073,0.206,0.2058,0.2036,0.2034,0.2033,0.2037,0.2035,0.2007,0.2007,0.2007,0.2007,0,0,0,0,0,0,0,0.2097,0.2098,0.2119,0.2103,0.2101,0.2091,0.2089,0.209,0.2061,0.2073,0.2069,0.2074,0.2034,0.2033,0.2031,0.2034,0.2007,0.2007,0.2007,0.2006,0.2049,0.205,0,0,0,0,0,0,0.2106,0.2098,0.2119,0.2119,0.2097,0.2093,0.2091,0.2094,0.2062,0.2057,0.2075,0.2072,0.2035,0.2032,0.2029,0.2071,0.2007,0.2006,0.2006,0.2047,0.2049,0.2051,0,0,0,0,0,0,0.2105,0.2108,0.212,0.2111,0.2112,0.2096,0.2099,0.2095,0.2095,0.2065,0.2058,0.2081,0.2034,0.203,0.2033,0.2068,0.2006,0.2006,0.2046,0.2048,0.205,0.2151,0,0,0,0,0,0,0.2104,0.2107,0.2116,0.2112,0.2113,0.2139,0.2101,0.2096,0.2102,0.2097,0.2068,0.2061,0.2032,0.2034,0.2032,0.2067,0.2005,0.2044,0.2047,0.2049,0.2146,0.2156,0.2165,0,0,0,0,0,0.2103,0.2124,0.2117,0.212,0.2125,0.214,0.214,0.212,0.2104,0.2113,0.2091,0.2062,0.2049,0.2035,0.2033,0.2068,0.2043,0.2046,0.2049,0.2141,0.2154,0.2165,0,0,0,0,0,0,0.2126,0.2121,0.2112,0.2133,0.2139,0.2132,0.2144,0.2133,0.2125,0.2116,0.2082,0.2075,0.2091,0.2067,0.2052,0.2087,0.2042,0.2044,0.2112,0.2124,0.2134,0.214,0.2005,0,0,0,0,0,0.2136,0.2143,0.2142,0.2163,0.2166,0.2158,0.2164,0.2151,0.2144,0.2138,0.2122,0.2106,0.2105,0.2103,0.2094,0.2118,0.2117,0.2138,0.2148,0.2156,0.216,0.2208,0.2224,0.2061,0.2061,0.2061,0,0,0.2152,0.2153,0.2157,0.2168,0.2169,0.2188,0.2157,0.217,0.2187,0.2136,0.2155,0.214,0.2119,0.214,0.2146,0.2124,0.2202,0.216,0.2168,0.2167,0.2214,0.223,0.2244,0.2063,0.2063,0.2063,0,0,0.2184,0.2189,0.2198,0.2211,0.2219,0.2218,0.2226,0.2225,0.2223,0.2243,0.2212,0.2221,0.2216,0.2214,0.221,0.2272,0.2252,0.2267,0.2324,0.2372,0.2386,0.2399,0.2421,0.2435,0.2273,0.2273,0.2273,0,0.2201,0.2213,0.2208,0.2229,0.2245,0.2236,0.2258,0.2269,0.227,0.2277,0.2257,0.2273,0.2255,0.2292,0.2307,0.2296,0.2309,0.2284,0.2387,0.2399,0.241,0.243,0.2444,0.2278,0.2278,0.2277,0.2277,0,0.2233,0.2251,0.2267,0.2283,0.2305,0.2326,0.234,0.2359,0.2358,0.2361,0.2393,0.238,0.2386,0.2392,0.2366,0.2436,0.2415,0.2396,0.2362,0.2433,0.2449,0.2461,0.2286,0.2284,0.2282,0.2281,0,0,0.2242,0.2275,0.228,0.2295,0.2331,0.2349,0.2397,0.2425,0.2456,0.2466,0.251,0.2517,0.2507,0.2503,0.2487,0.2526,0.2614,0.2498,0.2498,0.2526,0.2712,0.2663,0.2672,0.2621,0.2623,0.2626,0.2693,0,0.2261,0.2292,0.2315,0.2364,0.238,0.241,0.2458,0.249,0.2513,0.2558,0.2564,0.2593,0.2553,0.2564,0.2602,0.2615,0.2651,0.2597,0.2631,0.2632,0.2587,0.2686,0.2407,0.2441,0.2705,0.2707,0.2708,0,0.2274,0.2293,0.2329,0.2388,0.2401,0.2443,0.2511,0.2553,0.2618,0.2637,0.2675,0.2677,0.2734,0.269,0.2761,0.2731,0.2727,0.2732,0.2735,0.2662,0.2607,0.2411,0.2454,0.2728,0.2727,0.2725,0.2724,0,0.2257,0.2305,0.2329,0.2351,0.2419,0.2456,0.2502,0.2572,0.2625,0.2693,0.2737,0.2786,0.283,0.2849,0.285,0.2818,0.2927,0.2881,0.2832,0.2827,0.258,0.255,0.2933,0.2933,0.2933,0.2932,0.2932,0,0.2264,0.2286,0.2321,0.2347,0.2388,0.245,0.2526,0.2571,0.2676,0.2735,0.2775,0.2833,0.2877,0.293,0.2906,0.292,0.2974,0.2864,0.2856,0.2607,0.2579,0.281,0.2795,0.2935,0.2934,0.2934,0.2933,0,0.224,0.2267,0.2297,0.2362,0.2382,0.2415,0.2542,0.2591,0.2695,0.2782,0.281,0.2915,0.2982,0.3009,0.3058,0.3,0.3005,0.2984,0.268,0.2637,0.2853,0.2842,0.2947,0.2946,0.2945,0.2945,0.2944,0,0.2222,0.2231,0.2287,0.23,0.2331,0.2398,0.244,0.2571,0.2635,0.2809,0.2839,0.2965,0.2997,0.3072,0.2991,0.2961,0.3029,0.2697,0.2588,0.2881,0.2863,0.2853,0.2843,0.2292,0.2286,0.2282,0.2278,0,0.2175,0.2196,0.2217,0.2248,0.2286,0.2339,0.2421,0.2489,0.2632,0.2723,0.2838,0.2894,0.2944,0.2797,0.2776,0.2713,0.2682,0.2603,0.3003,0.2344,0.2273,0.2252,0.2262,0.2236,0.224,0.2243,0.2246,0.2247,0.2119,0.2115,0.2142,0.217,0.2206,0.225,0.228,0.2371,0.2471,0.2532,0.2681,0.2633,0.2625,0.2443,0.236,0.2288,0.248,0.2332,0.2342,0.2358,0.2283,0.2216,0.2153,0.2156,0.2159,0.2162,0.2164,0,0.2014,0.2033,0.2056,0.2082,0.2083,0.2155,0.2227,0.2209,0.225,0.2302,0.2343,0.2078,0.1975,0.1992,0.1795,0.1792,0.1726,0.1734,0.161,0.1654,0.1693,0.158,0.1265,0.1262,0.126,0.1258,0,0,0.1952,0.1933,0.1954,0.1932,0.1965,0.1948,0.197,0.1926,0.1927,0.1846,0.1775,0.1834,0.1905,0.1533,0.1497,0.1357,0.1496,0.1298,0.2018,0.1917,0.1952,0.2038,0.1915,0,0,0,0,0]},{"header":{"parameterUnit":"m.s-1","parameterCategory":2,"la1":30.2991,"la2":30.254,"lo1":-89.0895,"lo2":-89.0444,"dy":0.0017,"dx":0.0017,"nx":28,"ny":28,"refTime":"2025-03-17T03:00:00:Z","depth":"2","parameterNumber":3,"parameterNumberName":"V-component_of_CURRENTS"},"data":[0,0,0,0,0,0,0,0,0,0,0,0,0,0,0,0,0,0,0,0,0,0,0,0,0,0,0,0,0,0,0,0,0,0,0,0,0,0,0,0,0,0,0,0,0,0,0,0,0,0,0,0,0,0,0,0,0,0,-0.0022,-0.0021,0,-0.0004,-0.0004,-0.0004,-0.001,-0.001,-0.0011,-0.0011,0.0016,0.0017,0.0018,0,0,0,0,0,0,0,0,0,0,0,0,0,-0.0045,-0.0044,-0.0022,-0.0021,-0.0021,-0.0004,-0.0004,-0.0004,-0.001,-0.001,-0.0011,-0.0011,0.0015,0.0016,0.0018,0,0,0,0,0,0,0,0,0,0,0,0,0,-0.0032,-0.0044,-0.0022,-0.0022,-0.0022,-0.0004,-0.0004,-0.0003,-0.001,-0.001,-0.0011,-0.0011,0.0015,0.0016,0.0018,0.0039,0,0,0.0023,0.0023,0,0,0,0,0,0,0,0,-0.0033,-0.0031,-0.0022,-0.0022,-0.0022,-0.0009,-0.0002,0.0011,-0.0009,-0.0014,-0.0011,-0.0012,0.0009,0.0011,0.0015,0.004,0.0041,0.0023,0.0024,0.0024,0.0025,0,0,0,0,0,0,0,-0.0034,-0.0032,-0.0015,-0.0022,-0.0022,-0.0018,-0.0017,0.0,-0.0,-0.0014,-0.0014,-0.0012,0.0009,0.0013,0.0015,0.0042,0.0023,0.0024,0.0025,0.0026,0.0072,0.0072,0,0,0,0,0,0,-0.0035,-0.0033,-0.0015,-0.0014,-0.0028,-0.0017,-0.0016,-0.0013,-0.0,0.0001,-0.0011,-0.0012,0.0011,0.0013,0.0016,0.0032,0.0024,0.0026,0.0027,0.0071,0.0072,0.0072,0,0,0,0,0,0,-0.0036,-0.0034,-0.0016,-0.0023,-0.002,-0.0016,-0.0013,-0.0012,-0.001,0.0001,0.0003,-0.001,0.001,0.0014,0.0033,0.0033,0.0027,0.0028,0.0071,0.0072,0.0072,0.007,0,0,0,0,0,0,-0.0037,-0.0034,-0.003,-0.0023,-0.002,-0.0001,-0.0012,-0.0012,-0.0008,-0.0009,0.0003,0.0005,0.001,0.003,0.0034,0.0035,0.0029,0.0071,0.0071,0.0072,0.007,0.007,0.0071,0,0,0,0,0,-0.0038,-0.0026,-0.003,-0.0028,-0.0016,-0.0,0.0002,0.0003,-0.0007,0.0001,0.0006,0.0005,0.0036,0.0032,0.0037,0.0038,0.0071,0.0071,0.0072,0.007,0.007,0.0071,0,0,0,0,0,0,-0.0041,-0.0025,-0.003,-0.0017,-0.0009,-0.0001,0.001,0.0004,0.0013,0.0012,0.0015,0.0018,0.0032,0.0039,0.0034,0.0053,0.0051,0.0052,0.0048,0.0048,0.0049,0.0056,0.0031,0,0,0,0,0,-0.0039,-0.0022,-0.0015,-0.0005,0.0002,0.0004,0.001,0.0008,0.0016,0.0019,0.0025,0.0032,0.0039,0.0046,0.0058,0.0074,0.0065,0.0076,0.0077,0.0077,0.0086,0.0067,0.0067,0.0074,0.0074,0.0074,0,0,-0.0039,-0.0027,-0.002,-0.0004,0.0004,0.0022,0.0006,0.0019,0.0026,0.0022,0.0038,0.0037,0.0045,0.0058,0.0065,0.0064,0.0069,0.0078,0.0078,0.0087,0.0068,0.0067,0.0066,0.0075,0.0075,0.0074,0,0,-0.0018,-0.0018,0.0009,0.0019,0.0034,0.0035,0.0038,0.0046,0.0043,0.0058,0.005,0.0051,0.0072,0.007,0.0073,0.0085,0.0072,0.0086,0.0096,0.0077,0.0076,0.0075,0.0054,0.0051,0.0086,0.0086,0.0086,0,-0.0016,0.0014,0.0016,0.0044,0.0056,0.0042,0.0067,0.0064,0.0072,0.0076,0.0066,0.0079,0.0077,0.0086,0.0084,0.0086,0.0073,0.0091,0.0077,0.0076,0.0075,0.0053,0.005,0.0086,0.0086,0.0086,0.0086,0,0.0029,0.0049,0.0066,0.0096,0.0104,0.0125,0.012,0.0121,0.0111,0.011,0.0114,0.0105,0.0113,0.0104,0.0098,0.0092,0.0082,0.0077,0.0073,0.0074,0.0051,0.0048,0.0086,0.0086,0.0086,0.0086,0,0,0.005,0.0092,0.0098,0.0121,0.0135,0.0149,0.0153,0.0163,0.0174,0.016,0.0172,0.0158,0.0145,0.0146,0.0128,0.0105,0.0075,0.0088,0.0087,0.0063,0.0029,0.0014,0.0009,0.0063,0.0063,0.0063,0.0012,0,0.0089,0.0151,0.0155,0.02,0.0231,0.0215,0.0225,0.0224,0.0217,0.0224,0.0192,0.0199,0.0162,0.0162,0.0132,0.0099,0.0068,0.0089,0.0036,0.0034,0.0018,0.0006,0.0062,0.002,0.0008,0.0008,0.0008,0,0.0135,0.0174,0.0228,0.0263,0.0274,0.0288,0.0302,0.0312,0.0304,0.0293,0.0278,0.0259,0.0227,0.0193,0.0122,0.0137,0.0083,0.0046,0.0043,0.0032,0.0014,0.002,0.0015,0.0002,0.0003,0.0003,0.0003,0,0.0162,0.022,0.0266,0.028,0.0316,0.0326,0.0338,0.0338,0.0356,0.0338,0.035,0.0302,0.0293,0.0215,0.0132,0.0127,0.0051,0.0037,-0.0029,-0.0031,0.0008,0.0011,-0.0019,-0.0019,-0.0019,-0.0019,-0.0019,0,0.0201,0.0237,0.0285,0.0311,0.0368,0.0368,0.0414,0.0409,0.0416,0.0457,0.0393,0.0414,0.0298,0.0244,0.015,0.0052,0.0062,-0.0028,-0.0045,0.0008,0.0011,-0.0005,-0.0003,-0.0021,-0.0021,-0.002,-0.002,0,0.0218,0.0248,0.0312,0.0363,0.0384,0.0424,0.0472,0.0511,0.0495,0.0541,0.0538,0.0498,0.0427,0.03,0.0182,0.0092,-0.0012,-0.0053,0.0013,0.0004,-0.0088,-0.0085,-0.0129,-0.0129,-0.013,-0.0131,-0.0131,0,0.0231,0.027,0.0356,0.0403,0.0429,0.0488,0.054,0.0549,0.0595,0.061,0.0647,0.0586,0.0585,0.0391,0.0208,0.0029,-0.0015,-0.0054,-0.0057,-0.0087,-0.0099,-0.0095,-0.0091,-0.0008,-0.0008,-0.0008,-0.0007,0,0.0269,0.0301,0.0359,0.0457,0.0524,0.0605,0.0674,0.0724,0.0749,0.0798,0.0859,0.0859,0.0669,0.0522,0.0245,0.0127,-0.0025,-0.0052,-0.0093,0.0008,0.0022,0.0011,0.0012,-0.0004,-0.0004,-0.0004,-0.0004,-0.0005,0.03,0.0349,0.0429,0.0522,0.0609,0.0718,0.0804,0.0893,0.0998,0.1086,0.1048,0.1054,0.0825,0.0512,0.0272,0.0005,0.0016,-0.0065,-0.0064,-0.0064,-0.0043,-0.0032,-0.0064,-0.0065,-0.0065,-0.0066,-0.0066,0,0.0348,0.0401,0.049,0.0611,0.0724,0.075,0.0899,0.1014,0.1184,0.1224,0.1287,0.1095,0.0894,0.0595,0.0226,0.0007,-0.0002,-0.0078,-0.0033,-0.0033,-0.0034,-0.0012,-0.0025,-0.0026,-0.0026,-0.0027,0,0,0.0371,0.0464,0.0513,0.0696,0.078,0.0952,0.1053,0.1235,0.1322,0.1422,0.1399,0.1336,0.0978,0.0712,0.0409,0.0188,0.0126,0.0146,0.0145,0.0238,0.0239,0.0014,0.0053,0,0,0,0,0]}],[{"header":{"parameterUnit":"m.s-1","parameterCategory":2,"la1":30.2991,"la2":30.254,"lo1":-89.0895,"lo2":-89.0444,"dy":0.0017,"dx":0.0017,"nx":28,"ny":28,"refTime":"2025-03-17T03:00:00:Z","depth":"4","parameterNumber":2,"parameterNumberName":"U-component_of_CURRENTS"},"data":[0,0,0,0,0,0,0,0,0,0,0,0,0,0,0,0,0,0,0,0,0,0,0,0,0,0,0,0,0,0,0,0,0,0,0,0,0,0,0,0,0,0,0,0,0,0,0,0,0,0,0,0,0,0,0,0,0,0,0.0885,0.0887,0,0.0944,0.0944,0.0944,0.0999,0.1,0.1002,0.1003,0.1078,0.1079,0.1079,0,0,0,0,0,0,0,0,0,0,0,0,0,0.0828,0.0828,0.0885,0.0887,0.0888,0.0944,0.0944,0.0944,0.0999,0.1,0.1002,0.1003,0.1078,0.1079,0.108,0,0,0,0,0,0,0,0,0,0,0,0,0,0.086,0.0828,0.0885,0.0927,0.0932,0.0944,0.0944,0.0944,0.0998,0.1,0.1002,0.1004,0.1077,0.1079,0.108,0.1047,0,0,0.1083,0.1084,0,0,0,0,0,0,0,0,0.0858,0.0861,0.092,0.0924,0.093,0.0973,0.0952,0.0982,0.0998,0.0965,0.1003,0.1005,0.1047,0.1051,0.1047,0.105,0.1053,0.1083,0.1084,0.1084,0.1085,0,0,0,0,0,0,0,0.0856,0.0859,0.0901,0.0921,0.0927,0.0947,0.0952,0.0957,0.0989,0.0968,0.0974,0.0992,0.105,0.1046,0.105,0.1055,0.1083,0.1084,0.1085,0.1085,0.1161,0.1162,0,0,0,0,0,0,0.086,0.0856,0.09,0.0904,0.0906,0.0947,0.0953,0.0951,0.0989,0.0999,0.099,0.0994,0.1043,0.1048,0.1053,0.1115,0.1084,0.1085,0.1086,0.1159,0.1161,0.1162,0,0,0,0,0,0,0.0858,0.0862,0.0897,0.0889,0.0895,0.0946,0.0943,0.0951,0.0977,0.1007,0.1016,0.1012,0.1045,0.1051,0.1112,0.1115,0.1086,0.1087,0.1158,0.116,0.1162,0.1177,0,0,0,0,0,0,0.0856,0.0861,0.0874,0.0888,0.0896,0.0929,0.0942,0.0951,0.0986,0.0992,0.1027,0.1035,0.1047,0.111,0.1113,0.1116,0.1088,0.1156,0.1159,0.1161,0.1175,0.1179,0.1183,0,0,0,0,0,0.0853,0.0858,0.0873,0.088,0.0907,0.093,0.0936,0.0974,0.0985,0.1001,0.1046,0.1035,0.1127,0.1113,0.1115,0.1119,0.1155,0.1158,0.1161,0.1173,0.1178,0.1183,0,0,0,0,0,0,0.0837,0.0865,0.0882,0.0895,0.0925,0.0943,0.0974,0.0981,0.1022,0.1052,0.1058,0.1069,0.1117,0.1123,0.1107,0.1151,0.1135,0.1139,0.1143,0.1149,0.1153,0.1179,0.1089,0,0,0,0,0,0.084,0.0855,0.0883,0.0898,0.0921,0.0946,0.0965,0.0995,0.1029,0.1049,0.107,0.1103,0.1122,0.1144,0.1166,0.1192,0.1214,0.1196,0.12,0.1203,0.1229,0.1246,0.1254,0.1172,0.1172,0.1172,0,0,0.0847,0.0859,0.0874,0.0898,0.0929,0.0955,0.0962,0.1013,0.1036,0.1051,0.11,0.1119,0.1134,0.1172,0.1192,0.1184,0.1245,0.1207,0.1209,0.1234,0.125,0.1258,0.1265,0.1174,0.1174,0.1173,0,0,0.0861,0.0875,0.0902,0.0918,0.0975,0.0989,0.1006,0.1045,0.1075,0.1126,0.1135,0.118,0.1205,0.1222,0.1229,0.127,0.1264,0.1257,0.1299,0.1315,0.1321,0.1328,0.1393,0.1404,0.126,0.126,0.126,0,0.0876,0.0892,0.0915,0.0936,0.0961,0.1002,0.1036,0.1058,0.1111,0.1139,0.1161,0.1217,0.1233,0.1261,0.1284,0.1278,0.1299,0.1273,0.1319,0.1325,0.1331,0.1396,0.1409,0.1261,0.1261,0.1261,0.1261,0,0.0904,0.0921,0.0939,0.0974,0.1002,0.1041,0.108,0.1117,0.116,0.1183,0.1248,0.1284,0.1329,0.1315,0.1319,0.1353,0.136,0.1317,0.1302,0.134,0.1407,0.142,0.1262,0.1262,0.1262,0.1261,0,0,0.0925,0.0957,0.0965,0.0976,0.1029,0.1046,0.1101,0.1152,0.1186,0.1251,0.1304,0.1344,0.1383,0.1397,0.1395,0.1405,0.1473,0.1385,0.1385,0.1445,0.1543,0.1395,0.1395,0.142,0.1422,0.1423,0.1582,0,0.095,0.0985,0.0998,0.1029,0.1054,0.109,0.1125,0.1177,0.1233,0.1292,0.135,0.1406,0.1404,0.1442,0.1458,0.1464,0.1503,0.1437,0.1504,0.1508,0.1364,0.1402,0.1428,0.1592,0.1595,0.1597,0.1598,0,0.0974,0.0992,0.1041,0.1051,0.1069,0.1098,0.1165,0.1208,0.1294,0.1339,0.1421,0.1466,0.1544,0.1522,0.1597,0.155,0.1574,0.1569,0.1574,0.144,0.1381,0.1541,0.1622,0.162,0.1618,0.1617,0.1615,0,0.097,0.1006,0.1044,0.105,0.1089,0.1127,0.117,0.1246,0.1275,0.14,0.1459,0.1537,0.1622,0.1641,0.1666,0.1645,0.1719,0.1689,0.1591,0.1584,0.1665,0.1656,0.175,0.175,0.175,0.1749,0.1749,0,0.096,0.0982,0.1051,0.1055,0.1107,0.115,0.1213,0.126,0.1338,0.1375,0.1513,0.1561,0.1649,0.1699,0.1701,0.1685,0.1766,0.1623,0.1605,0.1673,0.1663,0.1676,0.1665,0.1755,0.1754,0.1753,0.1752,0,0.0935,0.0978,0.1006,0.1069,0.1102,0.1151,0.1218,0.1246,0.1353,0.1421,0.1472,0.1607,0.168,0.1731,0.1773,0.1734,0.1716,0.1687,0.1801,0.1783,0.1587,0.1576,0.1642,0.1638,0.1634,0.1631,0.1629,0,0.0911,0.0938,0.1019,0.1042,0.1077,0.1153,0.1197,0.1263,0.128,0.1413,0.1435,0.1566,0.164,0.164,0.1675,0.1693,0.1652,0.1682,0.1606,0.1596,0.1572,0.1566,0.156,0.1623,0.1622,0.1621,0.162,0,0.0864,0.0921,0.0942,0.1002,0.105,0.1086,0.115,0.1137,0.1214,0.1326,0.1372,0.1429,0.1517,0.1559,0.1577,0.1569,0.1675,0.1645,0.1653,0.1583,0.1574,0.1553,0.1551,0.1608,0.161,0.1611,0.1612,0,0.0832,0.0844,0.0887,0.0925,0.0982,0.0991,0.1032,0.1055,0.108,0.1208,0.1212,0.1364,0.1478,0.1494,0.1488,0.1483,0.1476,0.1448,0.1466,0.1481,0.1341,0.13,0.1251,0,0,0,0,0,0.079,0.0785,0.0803,0.0818,0.0869,0.0902,0.0974,0.1009,0.1091,0.1086,0.1129,0.1192,0.1248,0.1329,0.1291,0.1403,0.1463,0.1354,0.1435,0.154,0.1554,0.1397,0,0,0,0,0,0,0.076,0.0768,0.0765,0.0723,0.0721,0.0754,0.0798,0.0856,0.0854,0.0966,0.1011,0.112,0.1195,0.1247,0.1268,0.1284,0.1312,0.1431,0.1428,0.1532,0.1545,0.1556,0.14,0,0,0,0,0]},{"header":{"parameterUnit":"m.s-1","parameterCategory":2,"la1":30.2991,"la2":30.254,"lo1":-89.0895,"lo2":-89.0444,"dy":0.0017,"dx":0.0017,"nx":28,"ny":28,"refTime":"2025-03-17T03:00:00:Z","depth":"4","parameterNumber":3,"parameterNumberName":"V-component_of_CURRENTS"},"data":[0,0,0,0,0,0,0,0,0,0,0,0,0,0,0,0,0,0,0,0,0,0,0,0,0,0,0,0,0,0,0,0,0,0,0,0,0,0,0,0,0,0,0,0,0,0,0,0,0,0,0,0,0,0,0,0,0,0,0.0353,0.0353,0,0.0353,0.0353,0.0353,0.0359,0.0359,0.0359,0.0359,0.0399,0.04,0.0401,0,0,0,0,0,0,0,0,0,0,0,0,0,0.0334,0.0334,0.0353,0.0353,0.0353,0.0353,0.0353,0.0353,0.0359,0.0359,0.0359,0.0359,0.0399,0.04,0.0401,0,0,0,0,0,0,0,0,0,0,0,0,0,0.0338,0.0334,0.0353,0.0356,0.0357,0.0353,0.0353,0.0353,0.0359,0.0359,0.0359,0.036,0.0399,0.04,0.0401,0.0402,0,0,0.0405,0.0406,0,0,0,0,0,0,0,0,0.0338,0.0339,0.0356,0.0356,0.0356,0.0357,0.0361,0.0372,0.0358,0.0357,0.0359,0.036,0.0389,0.0391,0.0389,0.0404,0.0406,0.0405,0.0406,0.0407,0.0407,0,0,0,0,0,0,0,0.0338,0.0339,0.0352,0.0356,0.0356,0.035,0.0351,0.0363,0.0371,0.0357,0.0358,0.0359,0.039,0.0387,0.039,0.0407,0.0405,0.0406,0.0407,0.0408,0.0419,0.0418,0,0,0,0,0,0,0.034,0.0338,0.0352,0.0352,0.0349,0.035,0.0351,0.0356,0.037,0.0373,0.0359,0.0359,0.0385,0.0388,0.0391,0.041,0.0407,0.0408,0.0409,0.0419,0.0419,0.0418,0,0,0,0,0,0,0.034,0.0341,0.0352,0.0346,0.0347,0.0351,0.0355,0.0356,0.0359,0.0371,0.0374,0.0363,0.0385,0.039,0.0399,0.0411,0.0408,0.041,0.042,0.0419,0.0418,0.0436,0,0,0,0,0,0,0.0339,0.0341,0.0351,0.0346,0.0347,0.0355,0.0355,0.0355,0.036,0.036,0.0376,0.0379,0.0386,0.0397,0.04,0.0413,0.0411,0.042,0.0419,0.0419,0.0436,0.0436,0.0436,0,0,0,0,0,0.0339,0.0347,0.0352,0.0354,0.0359,0.0356,0.0356,0.0358,0.036,0.0363,0.0366,0.0379,0.0393,0.0397,0.0401,0.0415,0.0421,0.042,0.0419,0.0436,0.0436,0.0436,0,0,0,0,0,0,0.0343,0.0348,0.0354,0.0364,0.0364,0.0357,0.0362,0.0361,0.0365,0.0368,0.0376,0.038,0.0392,0.0394,0.0398,0.0411,0.0408,0.0408,0.042,0.042,0.042,0.043,0.0412,0,0,0,0,0,0.0349,0.0359,0.0359,0.0367,0.0368,0.0366,0.0367,0.0367,0.0367,0.0369,0.0378,0.0383,0.0388,0.0397,0.0402,0.0413,0.0403,0.042,0.042,0.0421,0.0428,0.0417,0.0417,0.0415,0.0415,0.0415,0,0,0.0352,0.0358,0.0363,0.0369,0.0369,0.0378,0.0367,0.0369,0.0378,0.0374,0.0389,0.0386,0.0389,0.0399,0.0405,0.0406,0.0411,0.0419,0.042,0.0428,0.0416,0.0416,0.0417,0.0414,0.0414,0.0414,0,0,0.0359,0.0368,0.0377,0.0383,0.0388,0.0387,0.0389,0.0386,0.0387,0.0391,0.0392,0.039,0.0401,0.0406,0.0409,0.0409,0.041,0.0413,0.0428,0.0417,0.0417,0.0418,0.0389,0.0387,0.0416,0.0416,0.0416,0,0.0363,0.0382,0.0378,0.0392,0.0405,0.0394,0.041,0.0406,0.0406,0.0409,0.0398,0.0403,0.0402,0.0421,0.0417,0.0413,0.0401,0.0432,0.0419,0.0419,0.0419,0.039,0.0387,0.0416,0.0416,0.0416,0.0416,0,0.0379,0.0399,0.0404,0.0424,0.0433,0.0443,0.0443,0.0448,0.0442,0.0435,0.044,0.0427,0.0431,0.0428,0.0423,0.0431,0.0419,0.0419,0.0423,0.0421,0.0389,0.0386,0.0417,0.0417,0.0417,0.0417,0,0,0.0378,0.041,0.0415,0.0441,0.0456,0.0467,0.0479,0.0489,0.0504,0.0482,0.0498,0.0482,0.0467,0.0468,0.0463,0.0452,0.0429,0.0439,0.0438,0.0418,0.0394,0.0372,0.0366,0.0432,0.0432,0.0432,0.0366,0,0.0396,0.0433,0.0445,0.0489,0.0511,0.0519,0.0541,0.0546,0.0535,0.0544,0.0516,0.0521,0.0485,0.0491,0.0471,0.0451,0.0425,0.0447,0.0393,0.0391,0.0379,0.0364,0.0432,0.0363,0.0363,0.0362,0.0362,0,0.0413,0.044,0.0483,0.0541,0.0553,0.0583,0.0622,0.0642,0.0639,0.0626,0.0608,0.0579,0.056,0.0529,0.0471,0.0489,0.0439,0.041,0.0407,0.0383,0.0364,0.0369,0.0356,0.0357,0.0357,0.0357,0.0358,0,0.0427,0.0474,0.0515,0.0533,0.0585,0.062,0.0659,0.0671,0.0703,0.0684,0.0684,0.064,0.0636,0.0566,0.0481,0.0479,0.0415,0.0403,0.033,0.0327,0.036,0.0361,0.0353,0.0353,0.0353,0.0354,0.0354,0,0.0448,0.0485,0.0531,0.0563,0.0626,0.066,0.0727,0.0742,0.0782,0.0812,0.0738,0.0738,0.0647,0.0589,0.05,0.0404,0.042,0.0329,0.0312,0.0365,0.0367,0.0357,0.0358,0.0351,0.0352,0.0352,0.0352,0,0.0457,0.0483,0.0542,0.0611,0.0638,0.0693,0.0797,0.0847,0.0859,0.0897,0.0894,0.0833,0.0742,0.0632,0.0526,0.044,0.0343,0.0302,0.0357,0.0344,0.0253,0.0255,0.0209,0.0208,0.0207,0.0206,0.0205,0,0.0467,0.0492,0.0578,0.0622,0.0662,0.0746,0.0815,0.0881,0.0933,0.0944,0.0968,0.0894,0.0821,0.0648,0.0531,0.0349,0.0322,0.0258,0.0256,0.0252,0.0239,0.0244,0.0248,0.0204,0.0203,0.0203,0.0203,0,0.0486,0.0513,0.0569,0.0657,0.0738,0.0822,0.0924,0.0967,0.103,0.1034,0.1006,0.0895,0.0797,0.0648,0.051,0.038,0.0293,0.0246,0.0247,0.0245,0.0244,0.0234,0.024,0.0199,0.02,0.02,0.02,0,0.0508,0.0543,0.0616,0.0697,0.0791,0.0881,0.0929,0.0996,0.1053,0.1061,0.105,0.0919,0.0862,0.0664,0.0538,0.0406,0.0366,0.0309,0.0306,0.0309,0.0354,0.0369,0.0347,0,0,0,0,0,0.0523,0.0571,0.065,0.0753,0.0849,0.0903,0.0998,0.1039,0.1084,0.1068,0.1064,0.0955,0.0754,0.0678,0.0541,0.0516,0.0346,0.035,0.0281,0.0179,0.0183,0.0218,0,0,0,0,0,0,0.0536,0.0609,0.0653,0.0784,0.0858,0.0973,0.1031,0.106,0.1053,0.1057,0.0959,0.0906,0.0724,0.0832,0.0534,0.0497,0.0428,0.0265,0.0261,0.0177,0.018,0.0184,0.0221,0,0,0,0,0]}]]